CAPE
0 0 0 0 532 1415 1830 2251 2237 2123 2100 1776 1634 1438 1376 1091 1227 1154 943 1063 580 702 766 686 484 467 314 187 130 45 8 20
0 0 0 0 701 1526 1804 2143 2321 2212 1869 1676 1404 1060 1077 1054 1333 1217 721 556 251 743 554 322 430 301 243 234 241 146 81 67
0 0 603 1011 1309 1575 1835 2096 2217 2041 1642 1368 1135 1154 908 1109 1153 958 789 542 428 525 446 292 350 382 266 214 217 247 27 173
0 0 0 299 1158 1877 2128 2303 2035 1732 1413 1290 1228 1110 1064 1141 827 1033 477 528 416 280 308 173 201 315 223 213 187 286 142 258
0 0 0 1 52 746 1251 1352 1158 1663 1309 1040 950 915 669 628 980 833 480 383 64 12 163 217 278 131 154 98 195 163 189 166
0 0 0 0 0 37 290 428 544 769 768 863 912 918 881 932 709 538 297 53 181 74 32 190 233 348 207 117 184 332 366 308
0 0 0 0 0 0 0 50 123 215 231 366 584 575 519 521 617 287 202 114 91 72 63 75 43 242 200 84 64 35 143 100
0 0 0 0 1 1 0 1 3 36 308 240 66 124 250 261 223 139 42 0 4 32 82 106 38 5 146 94 24 100 116 89
4 0 0 0 0 0 0 0 0 0 73 64 102 105 184 233 154 94 77 44 0 0 49 68 149 4 41 31 83 34 254 12
4 10 0 0 0 0 0 0 0 0 0 7 2 12 139 205 230 318 151 62 41 11 1 1 67 93 170 123 65 8 82 232
0 0 0 0 0 0 0 0 0 0 0 0 0 0 21 113 408 348 275 186 103 30 3 1 3 39 94 163 144 3 10 88
0 0 0 0 0 0 0 0 0 0 0 0 0 6 68 82 123 105 138 127 120 60 25 17 49 6 14 32 48 27 8 0
0 0 0 0 0 0 0 0 0 0 0 0 0 19 55 157 127 77 81 108 111 98 58 33 34 14 47 13 48 9 3 10
0 0 0 0 6 7 8 3 27 66 36 3 0 2 29 92 146 145 114 94 74 44 53 43 33 11 43 34 6 36 6 11
0 3 17 51 50 71 4 10 58 20 28 9 0 0 0 1 21 60 40 17 0 1 23 59 41 11 28 46 25 48 0 1
1 12 35 35 75 72 4 22 0 0 0 0 0 0 0 0 0 0 0 0 0 0 25 39 65 35 50 39 19 4 15 20
0 14 0 1 4 14 26 8 0 0 0 0 0 0 0 0 1 3 0 0 2 3 0 15 44 50 31 17 15 17 3 0
3 1 0 0 21 32 56 8 0 0 0 0 0 0 0 0 0 1 0 0 13 11 18 19 13 10 3 0 3 0 0 0
0 0 0 2 4 3 26 25 0 0 0 0 0 0 0 0 0 0 0 2 8 0 1 3 6 0 0 14 0 1 0 0
CIN
-0 -0 -0 -0 -483 -326 -247 -151 -111 -128 -75 -58 -64 -71 -82 -76 -45 -45 -59 -15 -14 -10 -8 -0 -0 -0 -4 -1 -8 -68 -95 -38
-0 -0 -0 -0 -438 -288 -258 -227 -137 -112 -83 -61 -82 -67 -76 -83 -30 -7 -21 -35 -17 -1 -25 -7 -0 -0 -3 -0 -0 -15 -41 -47
-0 -0 -264 -260 -245 -197 -161 -114 -116 -106 -86 -122 -73 -51 -78 -29 -7 -3 -27 -23 -45 -31 -23 -9 -5 -0 -2 -10 -11 -7 -68 -30
-0 -0 -0 -151 -65 -21 -9 -4 -31 -69 -106 -100 -71 -45 -48 -3 -25 -1 -28 -16 -1 -7 -18 -29 -17 -0 -0 -2 -6 -2 -36 -7
-0 -0 -0 -82 -182 -40 -5 -3 -8 -2 -8 -40 -50 -53 -68 -59 -1 -9 -5 -6 -0 -2 -3 -3 -7 -4 -1 -9 -2 -10 -10 -8
-0 -0 -0 -0 -0 -113 -59 -31 -15 -0 -0 -0 -1 -13 -30 -0 -0 -3 -19 -61 -0 -0 -5 -0 -0 -0 -0 -11 -3 -2 -3 -0
-0 -0 -0 -87 -0 -0 -0 -20 -31 -25 -4 -6 -0 -0 -1 -4 -0 -8 -36 -36 -10 -3 -9 -0 -0 -0 -0 -13 -10 -42 -33 -36
-0 -0 -0 -0 -15 -0 -0 -0 -0 -116 -51 -43 -67 -19 -27 -1 -41 -7 -45 -0 -32 -103 -22 -1 -13 -1 -0 -3 -31 -1 -20 -40
-28 -39 -0 -0 -0 -0 -0 -0 -0 -0 -49 -48 -56 -80 -58 -51 -42 -12 -14 -29 -40 -0 -120 -46 -4 -0 -0 -0 -2 -48 -3 -54
-7 -13 -0 -0 -0 -0 -0 -0 -0 -0 -0 -85 -30 -42 -27 -44 -53 -28 -17 -13 -59 -124 -26 -1 -50 -0 -0 -1 -1 -0 -9 -0
-0 -0 -0 -0 -0 -0 -0 -0 -0 -0 -0 -0 -0 -0 -119 -60 -15 -16 -12 -8 -14 -34 -0 -93 -0 -49 -5 -0 -0 -0 -2 -0
-0 -0 -0 -0 -0 -0 -0 -0 -0 -0 -0 -0 -0 -76 -77 -67 -42 -44 -24 -20 -12 -0 -0 -82 -101 -10 -48 -45 -9 -11 -14 -0
-0 -0 -0 -0 -0 -0 -0 -0 -0 -0 -0 -0 -0 -149 -106 -73 -59 -39 -35 -43 -42 -26 -3 -5 -0 -64 -17 -15 -0 -18 -0 -2
-0 -0 -0 -7 -80 -93 -107 -149 -163 -124 -168 -248 -0 -151 -106 -44 -39 -41 -32 -51 -41 -24 -14 -19 -7 -5 -0 -3 -2 -0 -9 -29
-0 -38 -113 -78 -78 -49 -118 -135 -104 -183 -160 -184 -0 -0 -0 -91 -34 -32 -30 -23 -6 -0 -10 -0 -0 -2 -1 -7 -0 -2 -0 -0
-46 -66 -30 -24 -14 -23 -105 -78 -15 -0 -0 -0 -0 -0 -0 -0 -0 -0 -0 -0 -0 -0 -0 -0 -0 -1 -1 -2 -9 -24 -0 -6
-0 -4 -0 -26 -96 -13 -39 -50 -0 -0 -0 -0 -0 -0 -0 -0 -0 -0 -0 -0 -0 -0 -0 -7 -0 -1 -6 -6 -0 -0 -20 -0
-0 -0 -0 -0 -41 -29 -63 -3 -0 -0 -0 -0 -0 -0 -0 -0 -0 -1 -0 -0 -0 -0 -0 -3 -6 -10 -0 -0 -0 -2 -0 -0
-0 -0 -2 -2 -1 -6 -10 -4 -0 -0 -0 -0 -0 -0 -0 -0 -0 -0 -0 -0 -0 -1 -0 -0 -2 -0 -0 -1 -0 -0 -0 -0
Wind_Speed
nan nan nan nan 56 59 56 49 47 40 42 46 47 48 52 53 51 44 49 48 49 45 32 41 43 44 42 40 39 nan nan nan
nan nan nan nan 56 56 55 50 49 50 44 42 40 47 48 52 47 41 43 44 52 46 42 44 41 38 39 40 41 39 nan nan
nan nan 52 52 55 52 51 52 51 49 46 38 38 46 47 49 46 44 46 44 47 49 49 45 43 44 43 39 39 34 nan 32
nan nan nan 46 47 49 51 51 43 44 48 48 44 45 51 57 49 48 50 47 47 54 47 48 46 46 42 38 36 33 34 34
nan nan nan nan nan 46 50 52 49 49 46 44 46 44 50 52 52 51 51 47 nan nan 51 36 43 48 42 nan 38 35 38 35
nan nan nan nan nan nan 51 52 49 49 43 48 46 43 43 46 45 52 50 nan 43 nan nan 41 45 42 43 45 40 38 36 37
nan nan nan nan nan nan nan nan 48 46 47 50 50 47 46 48 46 47 55 56 nan nan nan nan nan 44 44 nan nan nan 39 38
nan nan nan nan nan nan nan nan nan nan 48 50 nan 52 47 45 42 51 nan nan nan nan nan 55 nan nan 35 nan nan 46 40 nan
nan nan nan nan nan nan nan nan nan nan nan nan 52 58 62 56 55 nan nan nan nan nan nan nan 56 nan nan nan nan nan 46 nan
nan nan nan nan nan nan nan nan nan nan nan nan nan nan 63 59 59 62 63 nan nan nan nan nan nan nan 58 59 nan nan nan 50
nan nan nan nan nan nan nan nan nan nan nan nan nan nan nan 60 64 74 66 61 65 nan nan nan nan nan nan 56 53 nan nan nan
nan nan nan nan nan nan nan nan nan nan nan nan nan nan nan nan 81 80 82 86 87 nan nan nan nan nan nan nan nan nan nan nan
nan nan nan nan nan nan nan nan nan nan nan nan nan nan nan 78 77 nan nan 85 84 nan nan nan nan nan nan nan nan nan nan nan
nan nan nan nan nan nan nan nan nan nan nan nan nan nan nan nan 41 47 53 nan nan nan nan nan nan nan nan nan nan nan nan nan
nan nan nan nan nan nan nan nan nan nan nan nan nan nan nan nan nan nan nan nan nan nan nan nan nan nan nan nan nan nan nan nan
nan nan nan nan nan nan nan nan nan nan nan nan nan nan nan nan nan nan nan nan nan nan nan nan nan nan nan nan nan nan nan nan
nan nan nan nan nan nan nan nan nan nan nan nan nan nan nan nan nan nan nan nan nan nan nan nan nan nan nan nan nan nan nan nan
nan nan nan nan nan nan nan nan nan nan nan nan nan nan nan nan nan nan nan nan nan nan nan nan nan nan nan nan nan nan nan nan
nan nan nan nan nan nan nan nan nan nan nan nan nan nan nan nan nan nan nan nan nan nan nan nan nan nan nan nan nan nan nan nan
Wind_Direction
nan nan nan nan 303 307 311 308 304 298 290 284 282 283 276 274 271 270 272 264 260 256 250 256 258 256 259 260 261 nan nan nan
nan nan nan nan 294 296 305 301 296 288 289 287 288 291 281 278 271 274 269 270 269 270 255 256 261 261 261 260 260 263 nan nan
nan nan 280 274 276 280 284 284 286 294 297 287 287 285 277 279 270 268 268 268 269 269 262 260 261 252 255 259 263 258 nan 276
nan nan nan 277 278 276 271 271 285 286 293 279 281 275 274 269 261 263 270 267 271 263 260 256 256 259 259 262 261 271 272 266
nan nan nan nan nan 276 276 287 292 291 292 276 284 280 279 279 280 261 266 266 nan nan 270 267 258 252 257 nan 258 259 266 279
nan nan nan nan nan nan 273 280 287 285 288 283 273 271 274 279 274 264 261 nan 263 nan nan 261 248 251 261 264 265 263 260 269
nan nan nan nan nan nan nan nan 277 276 276 279 269 262 264 275 275 272 258 259 nan nan nan nan nan 264 258 nan nan nan 266 267
nan nan nan nan nan nan nan nan nan nan 269 275 nan 269 265 268 262 270 nan nan nan nan nan 267 nan nan 258 nan nan 264 266 nan
nan nan nan nan nan nan nan nan nan nan nan nan 270 258 263 257 261 nan nan nan nan nan nan nan 269 nan nan nan nan nan 265 nan
nan nan nan nan nan nan nan nan nan nan nan nan nan nan 249 255 268 257 263 nan nan nan nan nan nan nan 273 273 nan nan nan 265
nan nan nan nan nan nan nan nan nan nan nan nan nan nan nan 272 267 263 255 251 259 nan nan nan nan nan nan 263 261 nan nan nan
nan nan nan nan nan nan nan nan nan nan nan nan nan nan nan nan 265 262 261 261 267 nan nan nan nan nan nan nan nan nan nan nan
nan nan nan nan nan nan nan nan nan nan nan nan nan nan nan 267 268 nan nan 262 264 nan nan nan nan nan nan nan nan nan nan nan
nan nan nan nan nan nan nan nan nan nan nan nan nan nan nan nan 275 267 265 nan nan nan nan nan nan nan nan nan nan nan nan nan
nan nan nan nan nan nan nan nan nan nan nan nan nan nan nan nan nan nan nan nan nan nan nan nan nan nan nan nan nan nan nan nan
nan nan nan nan nan nan nan nan nan nan nan nan nan nan nan nan nan nan nan nan nan nan nan nan nan nan nan nan nan nan nan nan
nan nan nan nan nan nan nan nan nan nan nan nan nan nan nan nan nan nan nan nan nan nan nan nan nan nan nan nan nan nan nan nan
nan nan nan nan nan nan nan nan nan nan nan nan nan nan nan nan nan nan nan nan nan nan nan nan nan nan nan nan nan nan nan nan
nan nan nan nan nan nan nan nan nan nan nan nan nan nan nan nan nan nan nan nan nan nan nan nan nan nan nan nan nan nan nan nan